Time,TemperatureF,DewpointF,PressureIn,WindDirection,WindDirectionDegrees,WindSpeedMPH,WindSpeedGustMPH,Humidity,HourlyPrecipIn,Conditions,Clouds,dailyrainin,SolarRadiationWatts/m^2,SoftwareType,DateUTC
2013-04-20 00:01:00,51.0,47.0,30.29,West,268,9.0,16.0,87,-99.99,,,0.04,0.120000,,2013-04-20 07:01:00,
2013-04-20 00:11:00,51.0,47.0,30.29,West,268,9.0,16.0,87,-99.99,,,0.04,0.120000,,2013-04-20 07:11:00,
2013-04-20 00:42:00,50.0,48.0,30.32,WSW,256,9.0,17.0,90,-99.99,,,0.04,0.120000,,2013-04-20 07:42:00,
2013-04-20 00:52:00,50.0,48.0,30.32,WSW,256,9.0,17.0,90,-99.99,,,0.04,0.120000,,2013-04-20 07:52:00,
2013-04-20 01:01:00,50.0,48.0,30.32,WSW,256,9.0,17.0,90,-99.99,,,0.04,0.120000,,2013-04-20 08:01:00,
2013-04-20 01:11:00,50.0,48.0,30.32,WSW,256,9.0,17.0,90,-99.99,,,0.04,0.120000,,2013-04-20 08:11:00,
2013-04-20 01:42:00,50.0,47.0,30.32,West,262,8.0,15.0,90,-99.99,,,-99.99,0.120000,,2013-04-20 08:42:00,
2013-04-20 01:52:00,50.0,47.0,30.32,West,262,8.0,15.0,90,-99.99,,,-99.99,0.120000,,2013-04-20 08:52:00,
2013-04-20 02:01:00,50.0,47.0,30.32,West,262,8.0,15.0,90,-99.99,,,-99.99,0.120000,,2013-04-20 09:01:00,
2013-04-20 02:11:00,50.0,47.0,30.32,West,262,8.0,15.0,90,-99.99,,,-99.99,0.120000,,2013-04-20 09:11:00,
2013-04-20 02:43:00,49.0,47.0,30.32,West,264,10.0,17.0,92,-99.99,,,0.03,0.000000,,2013-04-20 09:43:00,
2013-04-20 02:53:00,49.0,47.0,30.32,West,264,10.0,17.0,92,-99.99,,,0.03,0.000000,,2013-04-20 09:53:00,
2013-04-20 03:02:00,49.0,47.0,30.32,West,264,10.0,17.0,92,-99.99,,,0.03,0.000000,,2013-04-20 10:02:00,
2013-04-20 03:12:00,49.0,47.0,30.32,West,264,10.0,17.0,92,-99.99,,,0.03,0.000000,,2013-04-20 10:12:00,
2013-04-20 03:42:00,49.0,47.0,30.31,West,273,9.0,15.0,95,-99.99,,,0.03,0.000000,,2013-04-20 10:42:00,
2013-04-20 03:53:00,49.0,47.0,30.31,West,273,9.0,15.0,95,-99.99,,,0.03,0.000000,,2013-04-20 10:53:00,
2013-04-20 04:02:00,49.0,47.0,30.31,West,273,9.0,15.0,95,-99.99,,,0.03,0.000000,,2013-04-20 11:02:00,
2013-04-20 04:12:00,49.0,47.0,30.31,West,273,9.0,15.0,95,-99.99,,,0.03,0.000000,,2013-04-20 11:12:00,
2013-04-20 04:42:00,49.0,47.0,30.32,WSW,257,8.0,16.0,95,-99.99,,,0.03,0.000000,,2013-04-20 11:42:00,
2013-04-20 04:52:00,49.0,47.0,30.32,WSW,257,8.0,16.0,95,-99.99,,,0.03,0.000000,,2013-04-20 11:52:00,
2013-04-20 05:02:00,49.0,47.0,30.32,WSW,257,8.0,16.0,95,-99.99,,,0.03,0.000000,,2013-04-20 12:02:00,
2013-04-20 05:11:00,49.0,47.0,30.32,WSW,257,8.0,16.0,95,-99.99,,,0.03,0.000000,,2013-04-20 12:11:00,
2013-04-20 05:42:00,48.0,47.0,30.32,West,266,10.0,21.0,96,-99.99,,,0.03,0.000000,,2013-04-20 12:42:00,
2013-04-20 05:52:00,48.0,47.0,30.32,West,266,10.0,21.0,96,-99.99,,,0.03,0.000000,,2013-04-20 12:52:00,
2013-04-20 06:02:00,48.0,47.0,30.32,West,266,10.0,21.0,96,-99.99,,,0.03,0.000000,,2013-04-20 13:02:00,
2013-04-20 06:11:00,48.0,47.0,30.32,West,266,10.0,21.0,96,-99.99,,,0.03,0.000000,,2013-04-20 13:11:00,
2013-04-20 06:42:00,49.0,45.0,30.34,WSW,244,8.0,17.0,87,-99.99,,,0.03,0.700000,,2013-04-20 13:42:00,
2013-04-20 06:52:00,49.0,45.0,30.34,WSW,244,8.0,17.0,87,-99.99,,,0.03,0.700000,,2013-04-20 13:52:00,
2013-04-20 07:02:00,49.0,45.0,30.34,WSW,244,8.0,17.0,87,-99.99,,,0.03,0.700000,,2013-04-20 14:02:00,
2013-04-20 07:11:00,49.0,45.0,30.34,WSW,244,8.0,17.0,87,-99.99,,,0.03,0.700000,,2013-04-20 14:11:00,
2013-04-20 07:42:00,49.0,43.0,30.35,WSW,255,7.0,17.0,80,-99.99,,,0.02,20.570000,,2013-04-20 14:42:00,
2013-04-20 07:52:00,49.0,43.0,30.35,WSW,255,7.0,17.0,80,-99.99,,,0.02,20.570000,,2013-04-20 14:52:00,
2013-04-20 08:01:00,49.0,43.0,30.35,WSW,255,7.0,17.0,80,-99.99,,,0.02,20.570000,,2013-04-20 15:01:00,
2013-04-20 08:11:00,49.0,43.0,30.35,WSW,255,7.0,17.0,80,-99.99,,,0.02,20.570000,,2013-04-20 15:11:00,
2013-04-20 08:43:00,49.0,42.0,30.37,WSW,252,9.0,21.0,76,-99.99,,,0.02,87.050003,,2013-04-20 15:43:00,
2013-04-20 08:53:00,49.0,42.0,30.37,WSW,252,9.0,21.0,76,-99.99,,,0.02,87.050003,,2013-04-20 15:53:00,
2013-04-20 09:03:00,49.0,42.0,30.37,WSW,252,9.0,21.0,76,-99.99,,,0.02,87.050003,,2013-04-20 16:03:00,
2013-04-20 09:12:00,49.0,42.0,30.37,WSW,252,9.0,21.0,76,-99.99,,,0.02,87.050003,,2013-04-20 16:12:00,
2013-04-20 09:42:00,50.0,42.0,30.38,WSW,238,7.0,18.0,73,-99.99,,,0.01,162.710007,,2013-04-20 16:42:00,
2013-04-20 09:53:00,50.0,42.0,30.38,WSW,238,7.0,18.0,73,-99.99,,,0.01,162.710007,,2013-04-20 16:53:00,
2013-04-20 10:02:00,50.0,42.0,30.38,WSW,238,7.0,18.0,73,-99.99,,,0.01,162.710007,,2013-04-20 17:02:00,
2013-04-20 10:11:00,50.0,42.0,30.38,WSW,238,7.0,18.0,73,-99.99,,,0.01,162.710007,,2013-04-20 17:11:00,
2013-04-20 10:42:00,51.0,44.0,30.38,WSW,252,7.0,16.0,76,-99.99,,,0.01,375.160004,,2013-04-20 17:42:00,
2013-04-20 10:52:00,51.0,44.0,30.38,WSW,252,7.0,16.0,76,-99.99,,,0.01,375.160004,,2013-04-20 17:52:00,
2013-04-20 11:02:00,51.0,44.0,30.38,WSW,252,7.0,16.0,76,-99.99,,,0.01,375.160004,,2013-04-20 18:02:00,
2013-04-20 11:12:00,51.0,44.0,30.38,WSW,252,7.0,16.0,76,-99.99,,,0.01,375.160004,,2013-04-20 18:12:00,
2013-04-20 11:41:00,51.0,43.0,30.38,West,265,8.0,14.0,73,-99.99,,,0.01,206.869995,,2013-04-20 18:41:00,
2013-04-20 11:52:00,51.0,43.0,30.38,West,265,8.0,14.0,73,-99.99,,,0.01,206.869995,,2013-04-20 18:52:00,
2013-04-20 12:01:00,51.0,43.0,30.38,West,265,8.0,14.0,73,-99.99,,,0.01,206.869995,,2013-04-20 19:01:00,
2013-04-20 12:11:00,51.0,43.0,30.38,West,265,8.0,14.0,73,-99.99,,,0.01,206.869995,,2013-04-20 19:11:00,
2013-04-20 12:42:00,52.0,45.0,30.39,West,261,7.0,14.0,75,-99.99,,,0.01,512.179993,,2013-04-20 19:42:00,
2013-04-20 12:52:00,52.0,45.0,30.39,West,261,7.0,14.0,75,-99.99,,,0.01,512.179993,,2013-04-20 19:52:00,
2013-04-20 13:02:00,52.0,45.0,30.39,West,261,7.0,14.0,75,-99.99,,,0.01,512.179993,,2013-04-20 20:02:00,
2013-04-20 13:11:00,52.0,45.0,30.39,West,261,7.0,14.0,75,-99.99,,,0.01,512.179993,,2013-04-20 20:11:00,
2013-04-20 13:42:00,53.0,45.0,30.37,West,265,6.0,11.0,76,-99.99,,,0.01,292.989990,,2013-04-20 20:42:00,
2013-04-20 13:52:00,53.0,45.0,30.37,West,265,6.0,11.0,76,-99.99,,,0.01,292.989990,,2013-04-20 20:52:00,
2013-04-20 14:01:00,53.0,45.0,30.37,West,265,6.0,11.0,76,-99.99,,,0.01,292.989990,,2013-04-20 21:01:00,
2013-04-20 14:12:00,53.0,45.0,30.37,West,265,6.0,11.0,76,-99.99,,,0.01,292.989990,,2013-04-20 21:12:00,
2013-04-20 14:43:00,54.0,45.0,30.36,WSW,258,6.0,12.0,72,-99.99,,,0.01,254.639999,,2013-04-20 21:43:00,
2013-04-20 14:53:00,54.0,45.0,30.36,WSW,258,6.0,12.0,72,-99.99,,,0.01,254.639999,,2013-04-20 21:53:00,
2013-04-20 15:02:00,54.0,45.0,30.36,WSW,258,6.0,12.0,72,-99.99,,,0.01,254.639999,,2013-04-20 22:02:00,
2013-04-20 15:12:00,54.0,45.0,30.36,WSW,258,6.0,12.0,72,-99.99,,,0.01,254.639999,,2013-04-20 22:12:00,
2013-04-20 15:42:00,56.0,45.0,30.36,WSW,244,6.0,12.0,65,-99.99,,,0.01,487.190002,,2013-04-20 22:42:00,
2013-04-20 15:52:00,56.0,45.0,30.36,WSW,244,6.0,12.0,65,-99.99,,,0.01,487.190002,,2013-04-20 22:52:00,
2013-04-20 16:02:00,56.0,45.0,30.36,WSW,244,6.0,12.0,65,-99.99,,,0.01,487.190002,,2013-04-20 23:02:00,
2013-04-20 16:11:00,56.0,45.0,30.36,WSW,244,6.0,12.0,65,-99.99,,,0.01,487.190002,,2013-04-20 23:11:00,
2013-04-20 16:41:00,57.0,43.0,30.35,West,263,8.0,15.0,60,-99.99,,,0.01,445.700012,,2013-04-20 23:41:00,
2013-04-20 16:52:00,57.0,43.0,30.35,West,263,8.0,15.0,60,-99.99,,,0.01,445.700012,,2013-04-20 23:52:00,
2013-04-20 17:01:00,57.0,43.0,30.35,West,263,8.0,15.0,60,-99.99,,,0.01,445.700012,,2013-04-21 00:01:00,
2013-04-20 17:11:00,57.0,43.0,30.35,West,263,8.0,15.0,60,-99.99,,,0.01,445.700012,,2013-04-21 00:11:00,
2013-04-20 18:41:00,57.0,43.0,30.32,West,264,5.0,10.0,60,-99.99,,,0.01,151.899994,,2013-04-21 01:41:00,
2013-04-20 18:52:00,57.0,43.0,30.32,West,264,5.0,10.0,60,-99.99,,,0.01,151.899994,,2013-04-21 01:52:00,
2013-04-20 19:01:00,57.0,43.0,30.32,West,264,5.0,10.0,60,-99.99,,,0.01,151.899994,,2013-04-21 02:01:00,
2013-04-20 19:11:00,57.0,43.0,30.32,West,264,5.0,10.0,60,-99.99,,,0.01,151.899994,,2013-04-21 02:11:00,
2013-04-20 19:41:00,56.0,44.0,30.31,West,280,3.0,6.0,64,-99.99,,,0.01,37.419998,,2013-04-21 02:41:00,
2013-04-20 19:52:00,56.0,44.0,30.31,West,280,3.0,6.0,64,-99.99,,,0.01,37.419998,,2013-04-21 02:52:00,
2013-04-20 20:01:00,56.0,44.0,30.31,West,280,3.0,6.0,64,-99.99,,,0.01,37.419998,,2013-04-21 03:01:00,
2013-04-20 20:11:00,56.0,44.0,30.31,West,280,3.0,6.0,64,-99.99,,,0.01,37.419998,,2013-04-21 03:11:00,
2013-04-20 20:42:00,54.0,45.0,30.31,SSE,160,4.0,9.0,71,-99.99,,,0.01,0.580000,,2013-04-21 03:42:00,
2013-04-20 20:52:00,54.0,45.0,30.31,SSE,160,4.0,9.0,71,-99.99,,,0.01,0.580000,,2013-04-21 03:52:00,
2013-04-20 21:02:00,54.0,45.0,30.31,SSE,160,4.0,9.0,71,-99.99,,,0.01,0.580000,,2013-04-21 04:02:00,
2013-04-20 21:12:00,54.0,45.0,30.31,SSE,160,4.0,9.0,71,-99.99,,,0.01,0.580000,,2013-04-21 04:12:00,
2013-04-20 21:42:00,53.0,45.0,30.32,South,173,2.0,6.0,74,-99.99,,,0.01,0.120000,,2013-04-21 04:42:00,
2013-04-20 21:53:00,53.0,45.0,30.32,South,173,2.0,6.0,74,-99.99,,,0.01,0.120000,,2013-04-21 04:53:00,
2013-04-20 22:02:00,53.0,45.0,30.32,South,173,2.0,6.0,74,-99.99,,,0.01,0.120000,,2013-04-21 05:02:00,
2013-04-20 22:12:00,53.0,45.0,30.32,South,173,2.0,6.0,74,-99.99,,,0.01,0.120000,,2013-04-21 05:12:00,
2013-04-20 22:42:00,52.0,46.0,30.33,West,273,7.0,12.0,77,-99.99,,,0.01,0.120000,,2013-04-21 05:42:00,
2013-04-20 22:52:00,52.0,46.0,30.33,West,273,7.0,12.0,77,-99.99,,,0.01,0.120000,,2013-04-21 05:52:00,
2013-04-20 23:01:00,52.0,46.0,30.33,West,273,7.0,12.0,77,-99.99,,,0.01,0.120000,,2013-04-21 06:01:00,
2013-04-20 23:12:00,52.0,46.0,30.33,West,273,7.0,12.0,77,-99.99,,,0.01,0.120000,,2013-04-21 06:12:00,
2013-04-20 23:42:00,52.0,44.0,30.33,West,273,8.0,13.0,76,-99.99,,,0.00,0.120000,,2013-04-21 06:42:00,
2013-04-20 23:52:00,52.0,44.0,30.33,West,273,8.0,13.0,76,-99.99,,,0.00,0.120000,,2013-04-21 06:52:00,